This demonstration page uses our WeatherBlox Daily Observations layout. Learn more.

Left ArrowRight Arrow

39.08367, -84.50855

Hourly Observations for May 6, 2022

Temp ( °F °C ) Dew Point ( °F °C ) Humidity (%) Winds ( mph kmh ) Pressure ( in mb ) Visibility ( mi km ) Precip ( " mm )
12:53 am 00:53 Cloudy with Light Rain 58 14.4 57 13.9 97 97 Calm 29.83 1010 3 5 0.02 0.51
1:00 am 01:00 Cloudy with Rain 58 14.4 57 13.9 97 97 N 3 6 29.83 1010 2 3 0.01 0.25
1:11 am 01:11 Cloudy with Light Rain 58 14.4 57 13.9 97 97 Calm 29.83 1010 5 8 0.01 0.25
1:53 am 01:53 Cloudy with Light Rain 58 14.4 57 13.9 97 97 Calm 29.80 1009 5 8 0.03 0.76
2:53 am 02:53 Cloudy with Mist and Fog 57 13.9 57 13.9 100 100 Calm 29.76 1008 4 6 0.00 0.00
3:09 am 03:09 Partly Cloudy with Mist and Fog 57 13.9 57 13.9 100 100 Calm 29.76 1008 3 4 0.00 0.00
3:31 am 03:31 Mostly Cloudy with Mist and Fog 57 13.9 57 13.9 100 100 Calm 29.76 1008 1 2 0.00 0.00
3:53 am 03:53 Cloudy with Mist and Fog 57 13.9 57 13.9 100 100 Calm 29.74 1007 2 3 0.00 0.00
4:53 am 04:53 Cloudy with Heavy Rain 57 13.9 57 13.9 100 100 VRB 5 7 29.71 1006 1 1 0.18 4.57
5:02 am 05:02 Cloudy with Light Rain 57 13.9 57 13.9 100 100 Calm 29.71 1006 2 3 0.01 0.25
5:13 am 05:13 Cloudy with Mist and Fog 58 14.4 58 14.4 100 100 Calm 29.71 1006 3 5 0.01 0.25
5:26 am 05:26 Cloudy with Light Rain 58 14.4 58 14.4 100 100 WNW 7 11 29.72 1006 5 8 0.01 0.25
5:40 am 05:40 Cloudy with Rain 59 15 58 14.4 96 96 NW 8 13 29.72 1006 4 6 0.02 0.51
5:50 am 05:50 Cloudy with Rain 59 15 57 14 94 94 E 6 9 29.71 1006 3 4 0.05 1.27
5:53 am 05:53 Cloudy with Rain 58 14.4 58 14.4 100 100 ESE 8 13 29.70 1006 3 5 0.06 1.52
6:09 am 06:09 Cloudy with Heavy Rain 58 14.4 58 14.4 100 100 Calm 29.71 1006 2 3 0.05 1.27
6:23 am 06:23 Cloudy with Heavy Rain 58 14.4 58 14.4 100 100 SE 6 9 29.71 1006 1 1 0.21 5.33
6:34 am 06:34 Cloudy with Heavy Rain 58 14.4 58 14.4 100 100 ESE 5 7 29.71 1006 1 2 0.40 10.16
6:36 am 06:36 Cloudy with Heavy Rain 58 14.4 58 14.4 100 100 E 5 7 29.71 1006 1 1 0.49 12.45
6:53 am 06:53 Cloudy with Rain 58 14.4 58 14.4 100 100 N 3 6 29.71 1006 1 2 0.78 19.81
7:00 am 07:00 Cloudy with Rain 58 14.4 58 14.4 100 100 NNE 5 7 29.71 1006 2 3 0.02 0.51
7:08 am 07:08 Cloudy with Rain 58 14.4 58 14.4 100 100 ENE 6 9 29.71 1006 3 5 0.02 0.51
7:13 am 07:13 Cloudy with Light Rain 58 14.4 58 14.4 100 100 ENE 3 6 29.71 1006 2 3 0.03 0.76
7:53 am 07:53 Cloudy with Mist and Fog 59 15 59 15 100 100 Calm 29.71 1006 3 5 0.04 1.02
8:31 am 08:31 Cloudy with Mist and Fog 60 15.6 60 15.6 100 100 Calm 29.71 1006 6 10 0.00 0.00
8:53 am 08:53 Partly Cloudy 62 16.7 61 16.1 96 96 Calm 29.69 1005 7 11 0.00 0.00
9:53 am 09:53 Mostly Cloudy 64 17.8 62 16.7 93 93 SSE 5 7 29.65 1004 9 14 0.00 0.00
10:53 am 10:53 Cloudy 65 18.3 63 17.2 93 93 Calm 29.64 1004 7 11 0.00 0.00
11:28 am 11:28 Cloudy 67 19.4 65 18.3 93 93 Calm 29.63 1003 7 11 0.00 0.00
11:49 am 11:49 Cloudy 68 20 64 18 88 88 Calm 29.63 1003 8 13 0.00 0.00
11:53 am 11:53 Cloudy 69 20.6 65 18.3 87 87 Calm 29.63 1003 8 13 0.00 0.00
12:01 pm 12:01 Mostly Cloudy 69 20.6 64 17.8 84 84 Calm 29.63 1003 9 14 0.00 0.00
12:12 pm 12:12 Mostly Cloudy 69 20.6 64 17.8 84 84 Calm 29.62 1003 9 14 0.00 0.00
12:25 pm 12:25 Partly Cloudy 71 21.7 66 18.9 84 84 N 3 6 29.62 1003 9 14 0.00 0.00
12:53 pm 12:53 Mostly Cloudy 71 21.7 64 17.8 79 79 Calm 29.60 1002 10 16 0.00 0.00
1:38 pm 13:38 Cloudy 71 21.7 64 17.8 79 79 Calm 29.57 1001 10 16 0.00 0.00
1:46 pm 13:46 Mostly Cloudy with Nearby Thunderstorms 71 21.7 64 17.8 79 79 NNE 3 6 29.56 1001 10 16 0.00 0.00
1:53 pm 13:53 Mostly Cloudy with Nearby Thunderstorms 71 21.7 65 18.3 81 81 NE 3 6 29.56 1001 10 16 0.00 0.00
2:27 pm 14:27 Mostly Cloudy 70 21.1 64 17.8 82 82 VRB 5 7 29.54 1000 10 16 0.01 0.25
2:44 pm 14:44 Cloudy with Thunderstorms 70 21.1 65 18.3 84 84 NE 3 6 29.53 1000 10 16 0.01 0.25
2:53 pm 14:53 Cloudy with Thunderstorms 69 20.6 65 18.3 87 87 Calm 29.54 1000 6 10 0.01 0.25
3:15 pm 15:15 Cloudy with Nearby Thunderstorms 68 20 66 18.9 93 93 S 8 13 29.53 1000 8 13 0.01 0.25
3:32 pm 15:32 Cloudy 67 19.4 64 17.8 91 91 SSE 6 9 29.53 1000 10 16 0.01 0.25
3:53 pm 15:53 Mostly Cloudy 67 19.4 64 17.8 91 91 Calm 29.52 1000 8 13 0.01 0.25
4:35 pm 16:35 Cloudy 66 18.9 65 18.3 96 96 VRB 6 9 29.51 999 7 11 0.00 0.00
4:40 pm 16:40 Cloudy with Thunderstorms 66 18.9 65 18.3 96 96 S 5 7 29.51 999 7 11 0.00 0.00
4:53 pm 16:53 Cloudy with Thunderstorms 66 18.9 64 17.8 93 93 SSE 6 9 29.52 1000 7 11 0.01 0.25
5:38 pm 17:38 Cloudy with Nearby Thunderstorms 65 18.3 65 18.3 100 100 SW 9 15 29.52 1000 7 11 0.09 2.29
5:49 pm 17:49 Cloudy with Light Rain 64 18 64 18 100 100 S 7 11 29.51 999 7 11 0.10 2.54
5:53 pm 17:53 Cloudy with Light Rain 64 17.8 64 17.8 100 100 SSW 6 9 29.51 999 7 11 0.10 2.54
6:35 pm 18:35 Partly Cloudy 65 18.3 63 17.2 93 93 Calm 29.51 999 10 16 0.00 0.00
6:53 pm 18:53 Cloudy 65 18.3 64 17.8 97 97 N 6 9 29.51 999 10 16 0.00 0.00
7:04 pm 19:04 Cloudy with Thunderstorms 65 18.3 63 17.2 93 93 N 10 17 29.52 1000 10 16 0.00 0.00
7:53 pm 19:53 Cloudy with Rain 62 16.7 62 16.7 100 100 NE 9 15 29.51 999 3 5 0.05 1.27
8:22 pm 20:22 Cloudy with Light Rain 61 16.1 60 15.6 97 97 WNW 7 11 29.55 1001 3 5 0.06 1.52
8:53 pm 20:53 Cloudy 61 16.1 60 15.6 97 97 NW 7 11 29.56 1001 10 16 0.07 1.78
9:53 pm 21:53 Cloudy 61 16.1 59 15 93 93 N 7 11 29.57 1001 10 16 0.00 0.00
10:36 pm 22:36 Cloudy with Light Rain 60 15.6 58 14.4 93 93 N 9 15 29.58 1002 10 16 0.00 0.00
10:43 pm 22:43 Cloudy with Light Rain 59 15 58 14.4 96 96 N 9 15 29.58 1002 10 16 0.00 0.00
10:53 pm 22:53 Cloudy with Light Rain 58 14.4 57 13.9 97 97 NNW 13 20 29.58 1002 10 16 0.00 0.00
11:10 pm 23:10 Cloudy 58 14.4 57 13.9 97 97 N 14 22 29.59 1002 10 16 0.00 0.00
11:53 pm 23:53 Cloudy 56 13.3 55 12.8 97 97 N 12 19 29.58 1002 10 16 0.00 0.00

Powered by AerisWeather